PRIVATE WETTERSTATION BILLIGHEIM-ALLFELD                       ZURCK
Wetterdaten: Donnerstag, 06.01.2022
Datum Zeit Temp. A. Temp. A. min Temp. A. max Feuchte A. Luftdruck Regen Wind Richtung Richtung Sonnenschein ET Solar Taupunkt Windchill Windben Empfang
06.01.2022 00:00 1,4 C 1,4 C 1,4 C 91 % 1013,4 hPa 0,0 l/m 1,6 km/h (1 Bft) SW 225 0 min 0,000 mm 0 W/m 0,1 C 1,4 C 16,1 km/h (3 Bft) 100 %
06.01.2022 00:10 1,4 C 1,4 C 1,4 C 91 % 1013,4 hPa 0,0 l/m 1,6 km/h (1 Bft) SW 225 0 min 0,000 mm 0 W/m 0,1 C 1,4 C 11,3 km/h (2 Bft) 81 %
06.01.2022 00:20 1,4 C 1,4 C 1,4 C 92 % 1013,3 hPa 0,0 l/m 3,2 km/h (1 Bft) SW 225 0 min 0,000 mm 0 W/m 0,2 C 1,4 C 14,5 km/h (3 Bft) 100 %
06.01.2022 00:30 1,4 C 1,4 C 1,4 C 91 % 1013,3 hPa 0,0 l/m 4,8 km/h (1 Bft) SW 225 0 min 0,000 mm 0 W/m 0,1 C 1,4 C 14,5 km/h (3 Bft) 100 %
06.01.2022 00:40 1,4 C 1,4 C 1,5 C 91 % 1013,4 hPa 0,0 l/m 1,6 km/h (1 Bft) SW 225 0 min 0,000 mm 0 W/m 0,1 C 1,4 C 12,9 km/h (3 Bft) 100 %
06.01.2022 00:50 1,5 C 1,4 C 1,6 C 91 % 1013,5 hPa 0,0 l/m 1,6 km/h (1 Bft) W-SW 247 0 min 0,000 mm 0 W/m 0,2 C 1,5 C 9,7 km/h (2 Bft) 90 %
06.01.2022 01:00 1,6 C 1,5 C 1,6 C 91 % 1013,4 hPa 0,0 l/m 0,0 km/h (0 Bft) W-SW 247 0 min 0,000 mm 0 W/m 0,3 C 1,6 C 4,8 km/h (1 Bft) 100 %
06.01.2022 01:10 1,6 C 1,6 C 1,6 C 91 % 1013,5 hPa 0,2 l/m 0,0 km/h (0 Bft) W-SW 247 0 min 0,000 mm 0 W/m 0,3 C 1,6 C 8,0 km/h (2 Bft) 100 %
06.01.2022 01:20 1,6 C 1,6 C 1,6 C 91 % 1013,4 hPa 0,0 l/m 3,2 km/h (1 Bft) W-SW 247 0 min 0,000 mm 0 W/m 0,3 C 1,6 C 16,1 km/h (3 Bft) 100 %
06.01.2022 01:30 1,6 C 1,5 C 1,6 C 92 % 1013,4 hPa 0,0 l/m 4,8 km/h (1 Bft) SW 225 0 min 0,000 mm 0 W/m 0,4 C 1,6 C 17,7 km/h (3 Bft) 100 %
06.01.2022 01:40 1,5 C 1,5 C 1,6 C 92 % 1013,5 hPa 0,0 l/m 1,6 km/h (1 Bft) W-SW 247 0 min 0,000 mm 0 W/m 0,3 C 1,5 C 14,5 km/h (3 Bft) 99 %
06.01.2022 01:50 1,5 C 1,5 C 1,6 C 92 % 1013,5 hPa 0,0 l/m 1,6 km/h (1 Bft) W-SW 247 0 min 0,000 mm 0 W/m 0,3 C 1,5 C 11,3 km/h (2 Bft) 100 %
06.01.2022 02:00 1,5 C 1,5 C 1,5 C 92 % 1013,6 hPa 0,0 l/m 3,2 km/h (1 Bft) W-SW 247 0 min 0,000 mm 0 W/m 0,3 C 1,5 C 19,3 km/h (3 Bft) 100 %
06.01.2022 02:10 1,5 C 1,4 C 1,5 C 92 % 1013,8 hPa 0,0 l/m 3,2 km/h (1 Bft) W 270 0 min 0,000 mm 0 W/m 0,3 C 1,5 C 11,3 km/h (2 Bft) 100 %
06.01.2022 02:20 1,6 C 1,5 C 1,6 C 92 % 1013,7 hPa 0,0 l/m 3,2 km/h (1 Bft) W-SW 247 0 min 0,000 mm 0 W/m 0,4 C 1,6 C 16,1 km/h (3 Bft) 89 %
06.01.2022 02:30 1,6 C 1,6 C 1,6 C 92 % 1013,9 hPa 0,0 l/m 1,6 km/h (1 Bft) W-SW 247 0 min 0,000 mm 0 W/m 0,4 C 1,6 C 8,0 km/h (2 Bft) 100 %
06.01.2022 02:40 1,5 C 1,5 C 1,6 C 92 % 1014,0 hPa 0,0 l/m 0,0 km/h (0 Bft) W-SW 247 0 min 0,000 mm 0 W/m 0,3 C 1,5 C 8,0 km/h (2 Bft) 100 %
06.01.2022 02:50 1,5 C 1,5 C 1,6 C 92 % 1014,1 hPa 0,0 l/m 3,2 km/h (1 Bft) SW 225 0 min 0,000 mm 0 W/m 0,3 C 1,5 C 16,1 km/h (3 Bft) 100 %
06.01.2022 03:00 1,6 C 1,6 C 1,6 C 92 % 1014,1 hPa 0,0 l/m 6,4 km/h (2 Bft) W-SW 247 0 min 0,000 mm 0 W/m 0,4 C 1,6 C 19,3 km/h (3 Bft) 100 %
06.01.2022 03:10 1,7 C 1,6 C 1,7 C 92 % 1014,3 hPa 0,0 l/m 4,8 km/h (1 Bft) W 270 0 min 0,000 mm 0 W/m 0,5 C 1,7 C 16,1 km/h (3 Bft) 98 %
06.01.2022 03:20 1,8 C 1,7 C 1,8 C 92 % 1014,4 hPa 0,0 l/m 6,4 km/h (2 Bft) W-SW 247 0 min 0,000 mm 0 W/m 0,6 C 1,8 C 11,3 km/h (2 Bft) 99 %
06.01.2022 03:30 1,8 C 1,7 C 1,8 C 92 % 1014,6 hPa 0,2 l/m 4,8 km/h (1 Bft) W-SW 247 0 min 0,000 mm 0 W/m 0,6 C 1,8 C 14,5 km/h (3 Bft) 97 %
06.01.2022 03:40 1,7 C 1,7 C 1,8 C 93 % 1014,7 hPa 0,0 l/m 1,6 km/h (1 Bft) W 270 0 min 0,000 mm 0 W/m 0,7 C 1,7 C 6,4 km/h (2 Bft) 99 %
06.01.2022 03:50 1,7 C 1,7 C 1,7 C 93 % 1014,7 hPa 0,2 l/m 4,8 km/h (1 Bft) W 270 0 min 0,000 mm 0 W/m 0,7 C 1,7 C 14,5 km/h (3 Bft) 97 %
06.01.2022 04:00 1,7 C 1,7 C 1,7 C 93 % 1014,7 hPa 0,0 l/m 4,8 km/h (1 Bft) W 270 0 min 0,000 mm 0 W/m 0,7 C 1,7 C 9,7 km/h (2 Bft) 87 %
06.01.2022 04:10 1,7 C 1,6 C 1,7 C 93 % 1014,7 hPa 0,0 l/m 3,2 km/h (1 Bft) W 270 0 min 0,000 mm 0 W/m 0,7 C 1,7 C 11,3 km/h (2 Bft) 98 %
06.01.2022 04:20 1,7 C 1,6 C 1,7 C 93 % 1015,0 hPa 0,0 l/m 4,8 km/h (1 Bft) W 270 0 min 0,000 mm 0 W/m 0,7 C 1,7 C 14,5 km/h (3 Bft) 97 %
06.01.2022 04:30 1,7 C 1,7 C 1,7 C 93 % 1015,1 hPa 0,0 l/m 6,4 km/h (2 Bft) W-SW 247 0 min 0,000 mm 0 W/m 0,7 C 1,7 C 16,1 km/h (3 Bft) 97 %
06.01.2022 04:40 1,7 C 1,7 C 1,7 C 93 % 1015,1 hPa 0,0 l/m 6,4 km/h (2 Bft) W-SW 247 0 min 0,000 mm 0 W/m 0,7 C 1,7 C 11,3 km/h (2 Bft) 97 %
06.01.2022 04:50 1,6 C 1,6 C 1,7 C 93 % 1015,2 hPa 0,0 l/m 1,6 km/h (1 Bft) W-SW 247 0 min 0,000 mm 0 W/m 0,6 C 1,6 C 8,0 km/h (2 Bft) 98 %
06.01.2022 05:00 1,6 C 1,6 C 1,6 C 93 % 1015,3 hPa 0,0 l/m 3,2 km/h (1 Bft) W 270 0 min 0,000 mm 0 W/m 0,6 C 1,6 C 14,5 km/h (3 Bft) 97 %
06.01.2022 05:10 1,7 C 1,6 C 1,7 C 93 % 1015,5 hPa 0,0 l/m 3,2 km/h (1 Bft) W 270 0 min 0,000 mm 0 W/m 0,7 C 1,7 C 11,3 km/h (2 Bft) 98 %
06.01.2022 05:20 1,7 C 1,7 C 1,7 C 93 % 1015,6 hPa 0,0 l/m 1,6 km/h (1 Bft) W 270 0 min 0,000 mm 0 W/m 0,7 C 1,7 C 6,4 km/h (2 Bft) 97 %
06.01.2022 05:30 1,8 C 1,7 C 1,8 C 93 % 1015,5 hPa 0,0 l/m 3,2 km/h (1 Bft) W-SW 247 0 min 0,000 mm 0 W/m 0,8 C 1,8 C 8,0 km/h (2 Bft) 98 %
06.01.2022 05:40 1,8 C 1,8 C 1,8 C 93 % 1015,7 hPa 0,0 l/m 1,6 km/h (1 Bft) W-SW 247 0 min 0,000 mm 0 W/m 0,8 C 1,8 C 8,0 km/h (2 Bft) 98 %
06.01.2022 05:50 1,8 C 1,8 C 1,8 C 93 % 1015,8 hPa 0,0 l/m 3,2 km/h (1 Bft) W-SW 247 0 min 0,000 mm 0 W/m 0,8 C 1,8 C 11,3 km/h (2 Bft) 96 %
06.01.2022 06:00 1,8 C 1,8 C 1,8 C 93 % 1016,0 hPa 0,0 l/m 3,2 km/h (1 Bft) W 270 0 min 0,000 mm 0 W/m 0,8 C 1,8 C 8,0 km/h (2 Bft) 98 %
06.01.2022 06:10 1,8 C 1,8 C 1,8 C 93 % 1016,1 hPa 0,0 l/m 3,2 km/h (1 Bft) W 270 0 min 0,000 mm 0 W/m 0,8 C 1,8 C 11,3 km/h (2 Bft) 97 %
06.01.2022 06:20 1,8 C 1,8 C 1,8 C 93 % 1016,0 hPa 0,0 l/m 4,8 km/h (1 Bft) W 270 0 min 0,000 mm 0 W/m 0,8 C 1,8 C 16,1 km/h (3 Bft) 98 %
06.01.2022 06:30 1,8 C 1,8 C 1,8 C 93 % 1016,1 hPa 0,0 l/m 4,8 km/h (1 Bft) W 270 0 min 0,000 mm 0 W/m 0,8 C 1,8 C 14,5 km/h (3 Bft) 97 %
06.01.2022 06:40 1,6 C 1,6 C 1,8 C 93 % 1016,2 hPa 0,0 l/m 4,8 km/h (1 Bft) W 270 0 min 0,000 mm 0 W/m 0,6 C 1,6 C 11,3 km/h (2 Bft) 97 %
06.01.2022 06:50 1,5 C 1,5 C 1,6 C 93 % 1016,4 hPa 0,0 l/m 4,8 km/h (1 Bft) W 270 0 min 0,000 mm 0 W/m 0,5 C 1,5 C 11,3 km/h (2 Bft) 98 %
06.01.2022 07:00 1,4 C 1,4 C 1,5 C 93 % 1016,4 hPa 0,0 l/m 4,8 km/h (1 Bft) W 270 0 min 0,000 mm 0 W/m 0,4 C 1,4 C 14,5 km/h (3 Bft) 97 %
06.01.2022 07:10 1,4 C 1,4 C 1,4 C 93 % 1016,4 hPa 0,0 l/m 4,8 km/h (1 Bft) W 270 0 min 0,000 mm 0 W/m 0,4 C 1,4 C 11,3 km/h (2 Bft) 98 %
06.01.2022 07:20 1,4 C 1,4 C 1,4 C 93 % 1016,6 hPa 0,0 l/m 4,8 km/h (1 Bft) W 270 0 min 0,000 mm 0 W/m 0,4 C 1,4 C 14,5 km/h (3 Bft) 97 %
06.01.2022 07:30 1,4 C 1,4 C 1,4 C 93 % 1016,6 hPa 0,0 l/m 3,2 km/h (1 Bft) W 270 0 min 0,000 mm 0 W/m 0,4 C 1,4 C 9,7 km/h (2 Bft) 98 %
06.01.2022 07:40 1,4 C 1,4 C 1,4 C 93 % 1016,7 hPa 0,0 l/m 4,8 km/h (1 Bft) W-SW 247 0 min 0,000 mm 0 W/m 0,4 C 1,4 C 12,9 km/h (3 Bft) 98 %
06.01.2022 07:50 1,4 C 1,4 C 1,4 C 93 % 1016,8 hPa 0,0 l/m 3,2 km/h (1 Bft) W-SW 247 0 min 0,000 mm 0 W/m 0,4 C 1,4 C 9,7 km/h (2 Bft) 98 %
06.01.2022 08:00 1,4 C 1,4 C 1,4 C 93 % 1017,0 hPa 0,0 l/m 1,6 km/h (1 Bft) W-SW 247 0 min 0,000 mm 0 W/m 0,4 C 1,4 C 8,0 km/h (2 Bft) 98 %
06.01.2022 08:10 1,3 C 1,3 C 1,4 C 93 % 1017,1 hPa 0,0 l/m 1,6 km/h (1 Bft) W-SW 247 0 min 0,000 mm 0 W/m 0,3 C 1,3 C 9,7 km/h (2 Bft) 97 %
06.01.2022 08:20 1,2 C 1,2 C 1,3 C 93 % 1017,2 hPa 0,0 l/m 6,4 km/h (2 Bft) W 270 0 min 0,000 mm 0 W/m 0,2 C 1,2 C 14,5 km/h (3 Bft) 98 %
06.01.2022 08:30 1,2 C 1,2 C 1,2 C 93 % 1017,2 hPa 0,0 l/m 3,2 km/h (1 Bft) W 270 0 min 0,000 mm 7 W/m 0,2 C 1,2 C 9,7 km/h (2 Bft) 97 %
06.01.2022 08:40 1,1 C 1,1 C 1,2 C 93 % 1017,4 hPa 0,0 l/m 4,8 km/h (1 Bft) W 270 0 min 0,000 mm 12 W/m 0,1 C 1,1 C 11,3 km/h (2 Bft) 98 %
06.01.2022 08:50 1,1 C 1,1 C 1,1 C 93 % 1017,6 hPa 0,0 l/m 4,8 km/h (1 Bft) W 270 0 min 0,000 mm 21 W/m 0,1 C 1,1 C 17,7 km/h (3 Bft) 97 %
06.01.2022 09:00 1,2 C 1,1 C 1,2 C 93 % 1017,8 hPa 0,0 l/m 3,2 km/h (1 Bft) W-NW 292 0 min 0,000 mm 23 W/m 0,2 C 1,2 C 9,7 km/h (2 Bft) 97 %
06.01.2022 09:10 1,2 C 1,2 C 1,2 C 93 % 1018,0 hPa 0,0 l/m 4,8 km/h (1 Bft) W 270 0 min 0,000 mm 18 W/m 0,2 C 1,2 C 16,1 km/h (3 Bft) 98 %
06.01.2022 09:20 1,3 C 1,2 C 1,3 C 93 % 1018,1 hPa 0,0 l/m 3,2 km/h (1 Bft) W 270 0 min 0,000 mm 26 W/m 0,3 C 1,3 C 11,3 km/h (2 Bft) 97 %
06.01.2022 09:30 1,4 C 1,3 C 1,4 C 93 % 1018,2 hPa 0,0 l/m 3,2 km/h (1 Bft) W-NW 292 0 min 0,000 mm 72 W/m 0,4 C 1,4 C 11,3 km/h (2 Bft) 98 %
06.01.2022 09:40 1,4 C 1,4 C 1,4 C 93 % 1018,3 hPa 0,0 l/m 3,2 km/h (1 Bft) W-NW 292 0 min 0,000 mm 100 W/m 0,4 C 1,4 C 9,7 km/h (2 Bft) 97 %
06.01.2022 09:50 1,4 C 1,4 C 1,5 C 93 % 1018,4 hPa 0,0 l/m 4,8 km/h (1 Bft) W 270 0 min 0,000 mm 54 W/m 0,4 C 1,4 C 14,5 km/h (3 Bft) 98 %
06.01.2022 10:00 1,4 C 1,4 C 1,4 C 93 % 1018,5 hPa 0,0 l/m 4,8 km/h (1 Bft) W-SW 247 0 min 0,025 mm 47 W/m 0,4 C 1,4 C 14,5 km/h (3 Bft) 97 %
06.01.2022 10:10 1,4 C 1,4 C 1,4 C 93 % 1018,6 hPa 0,0 l/m 3,2 km/h (1 Bft) W-SW 247 0 min 0,000 mm 86 W/m 0,4 C 1,4 C 9,7 km/h (2 Bft) 98 %
06.01.2022 10:20 1,5 C 1,4 C 1,5 C 93 % 1018,7 hPa 0,0 l/m 1,6 km/h (1 Bft) W 270 0 min 0,000 mm 76 W/m 0,5 C 1,5 C 9,7 km/h (2 Bft) 98 %
06.01.2022 10:30 1,6 C 1,5 C 1,6 C 93 % 1018,9 hPa 0,0 l/m 4,8 km/h (1 Bft) W 270 0 min 0,000 mm 98 W/m 0,6 C 1,6 C 9,7 km/h (2 Bft) 97 %
06.01.2022 10:40 1,8 C 1,6 C 1,8 C 93 % 1019,0 hPa 0,0 l/m 4,8 km/h (1 Bft) W 270 10 min 0,000 mm 172 W/m 0,8 C 1,8 C 11,3 km/h (2 Bft) 98 %
06.01.2022 10:50 2,1 C 1,8 C 2,1 C 93 % 1019,0 hPa 0,0 l/m 4,8 km/h (1 Bft) W 270 10 min 0,000 mm 316 W/m 1,1 C 2,1 C 16,1 km/h (3 Bft) 97 %
06.01.2022 11:00 2,6 C 2,1 C 2,6 C 93 % 1019,1 hPa 0,0 l/m 4,8 km/h (1 Bft) W 270 10 min 0,051 mm 339 W/m 1,6 C 2,6 C 9,7 km/h (2 Bft) 98 %
06.01.2022 11:10 2,7 C 2,6 C 2,7 C 92 % 1019,1 hPa 0,0 l/m 6,4 km/h (2 Bft) W-NW 292 10 min 0,000 mm 206 W/m 1,5 C 2,7 C 16,1 km/h (3 Bft) 97 %
06.01.2022 11:20 2,5 C 2,5 C 2,7 C 92 % 1019,1 hPa 0,0 l/m 4,8 km/h (1 Bft) W-NW 292 0 min 0,000 mm 84 W/m 1,3 C 2,5 C 14,5 km/h (3 Bft) 97 %
06.01.2022 11:30 2,5 C 2,5 C 2,5 C 92 % 1019,2 hPa 0,0 l/m 1,6 km/h (1 Bft) W-NW 292 0 min 0,000 mm 127 W/m 1,3 C 2,5 C 8,0 km/h (2 Bft) 98 %
06.01.2022 11:40 2,6 C 2,5 C 2,6 C 92 % 1019,2 hPa 0,0 l/m 1,6 km/h (1 Bft) W-NW 292 0 min 0,000 mm 98 W/m 1,4 C 2,6 C 8,0 km/h (2 Bft) 97 %
06.01.2022 11:50 2,7 C 2,6 C 2,7 C 92 % 1019,3 hPa 0,0 l/m 1,6 km/h (1 Bft) W-NW 292 10 min 0,000 mm 330 W/m 1,5 C 2,7 C 8,0 km/h (2 Bft) 98 %
06.01.2022 12:00 3,1 C 2,7 C 3,1 C 92 % 1019,3 hPa 0,0 l/m 3,2 km/h (1 Bft) W 270 10 min 0,051 mm 304 W/m 1,9 C 3,1 C 9,7 km/h (2 Bft) 97 %
06.01.2022 12:20 3,3 C 2,7 C 3,3 C 91 % 1019,4 hPa 0,0 l/m 4,4 km/h (1 Bft) W-NW 295 20 min 0,000 mm 192 W/m 2,0 C 3,3 C 8,0 km/h (2 Bft) 100 %
06.01.2022 12:30 3,6 C 3,3 C 3,6 C 90 % 1019,4 hPa 0,0 l/m 4,4 km/h (1 Bft) NW 311 0 min 0,000 mm 95 W/m 2,1 C 3,6 C 11,3 km/h (2 Bft) 100 %
06.01.2022 12:40 3,4 C 3,4 C 3,6 C 89 % 1019,4 hPa 0,0 l/m 4,2 km/h (1 Bft) W-NW 295 0 min 0,000 mm 95 W/m 1,8 C 3,4 C 8,0 km/h (2 Bft) 100 %
06.01.2022 12:50 3,3 C 3,3 C 3,4 C 89 % 1019,3 hPa 0,0 l/m 4,6 km/h (1 Bft) W 275 10 min 0,000 mm 172 W/m 1,7 C 3,3 C 9,7 km/h (2 Bft) 100 %
06.01.2022 13:00 3,7 C 3,3 C 3,7 C 90 % 1019,4 hPa 0,0 l/m 1,9 km/h (1 Bft) W 276 10 min 0,000 mm 327 W/m 2,2 C 3,7 C 6,4 km/h (2 Bft) 100 %
06.01.2022 13:10 4,0 C 3,7 C 4,1 C 87 % 1019,3 hPa 0,0 l/m 4,9 km/h (1 Bft) W-NW 290 10 min 0,051 mm 167 W/m 2,0 C 4,0 C 11,3 km/h (2 Bft) 100 %
06.01.2022 13:20 4,2 C 4,0 C 4,2 C 85 % 1019,3 hPa 0,0 l/m 3,5 km/h (1 Bft) W 275 10 min 0,000 mm 200 W/m 1,9 C 4,2 C 9,7 km/h (2 Bft) 99 %
06.01.2022 13:30 4,2 C 4,2 C 4,2 C 84 % 1019,2 hPa 0,0 l/m 3,1 km/h (1 Bft) W 273 0 min 0,000 mm 102 W/m 1,7 C 4,2 C 9,7 km/h (2 Bft) 100 %
06.01.2022 13:40 3,9 C 3,9 C 4,2 C 84 % 1019,1 hPa 0,0 l/m 4,9 km/h (1 Bft) W-SW 257 0 min 0,000 mm 47 W/m 1,4 C 3,9 C 11,3 km/h (2 Bft) 98 %
06.01.2022 13:50 3,6 C 3,6 C 3,9 C 84 % 1019,3 hPa 0,0 l/m 2,3 km/h (1 Bft) W-SW 257 0 min 0,000 mm 35 W/m 1,2 C 3,6 C 8,0 km/h (2 Bft) 97 %
06.01.2022 14:00 3,3 C 3,3 C 3,6 C 85 % 1019,2 hPa 0,0 l/m 1,0 km/h (0 Bft) W-SW 257 0 min 0,051 mm 42 W/m 1,0 C 3,3 C 6,4 km/h (2 Bft) 90 %
06.01.2022 14:10 3,3 C 3,3 C 3,3 C 86 % 1019,2 hPa 0,0 l/m 1,3 km/h (1 Bft) W-SW 257 10 min 0,000 mm 171 W/m 1,2 C 3,3 C 6,4 km/h (2 Bft) 97 %
06.01.2022 14:20 3,7 C 3,3 C 3,7 C 84 % 1019,2 hPa 0,0 l/m 0,7 km/h (0 Bft) W-SW 257 10 min 0,000 mm 229 W/m 1,3 C 3,7 C 4,8 km/h (1 Bft) 97 %
06.01.2022 14:30 4,1 C 3,7 C 4,1 C 81 % 1019,2 hPa 0,0 l/m 1,2 km/h (1 Bft) W-SW 257 0 min 0,000 mm 137 W/m 1,1 C 4,1 C 4,8 km/h (1 Bft) 97 %
06.01.2022 14:40 4,2 C 4,1 C 4,2 C 81 % 1019,3 hPa 0,0 l/m 0,8 km/h (0 Bft) W-SW 257 0 min 0,000 mm 132 W/m 1,2 C 4,2 C 4,8 km/h (1 Bft) 97 %
06.01.2022 14:50 4,8 C 4,2 C 4,8 C 78 % 1019,2 hPa 0,0 l/m 0,3 km/h (0 Bft) W-SW 257 10 min 0,000 mm 204 W/m 1,3 C 4,8 C 3,2 km/h (1 Bft) 97 %
06.01.2022 15:00 5,3 C 4,8 C 5,3 C 78 % 1019,3 hPa 0,0 l/m 0,8 km/h (0 Bft) W-SW 257 10 min 0,076 mm 227 W/m 1,8 C 5,3 C 4,8 km/h (1 Bft) 97 %
06.01.2022 15:10 5,7 C 5,3 C 5,7 C 75 % 1019,5 hPa 0,0 l/m 1,9 km/h (1 Bft) W-NW 290 10 min 0,000 mm 183 W/m 1,6 C 5,7 C 8,0 km/h (2 Bft) 91 %
06.01.2022 15:20 5,6 C 5,6 C 5,7 C 76 % 1019,5 hPa 0,0 l/m 4,8 km/h (1 Bft) N-NW 333 0 min 0,000 mm 98 W/m 1,7 C 5,6 C 14,5 km/h (3 Bft) 98 %
06.01.2022 15:30 5,4 C 5,4 C 5,6 C 73 % 1019,6 hPa 0,0 l/m 2,1 km/h (1 Bft) NW 315 0 min 0,000 mm 93 W/m 1,0 C 5,4 C 8,0 km/h (2 Bft) 97 %
06.01.2022 15:40 5,3 C 5,3 C 5,4 C 72 % 1019,6 hPa 0,0 l/m 2,3 km/h (1 Bft) NW 318 0 min 0,000 mm 102 W/m 0,7 C 5,3 C 8,0 km/h (2 Bft) 99 %
06.01.2022 15:50 5,4 C 5,3 C 5,4 C 73 % 1019,7 hPa 0,0 l/m 4,5 km/h (1 Bft) W-SW 248 0 min 0,000 mm 104 W/m 1,0 C 5,4 C 9,7 km/h (2 Bft) 100 %
06.01.2022 16:00 5,2 C 5,2 C 5,4 C 73 % 1019,8 hPa 0,0 l/m 5,3 km/h (1 Bft) W-SW 254 0 min 0,051 mm 54 W/m 0,8 C 5,2 C 9,7 km/h (2 Bft) 99 %
06.01.2022 16:10 5,0 C 5,0 C 5,2 C 73 % 1019,9 hPa 0,0 l/m 4,6 km/h (1 Bft) W-SW 257 0 min 0,000 mm 23 W/m 0,6 C 5,0 C 9,7 km/h (2 Bft) 100 %
06.01.2022 16:20 4,6 C 4,6 C 5,0 C 74 % 1020,0 hPa 0,0 l/m 3,4 km/h (1 Bft) W 260 0 min 0,000 mm 12 W/m 0,4 C 4,6 C 9,7 km/h (2 Bft) 100 %
06.01.2022 16:30 4,1 C 4,1 C 4,6 C 76 % 1020,0 hPa 0,0 l/m 2,0 km/h (1 Bft) W 265 0 min 0,000 mm 7 W/m 0,3 C 4,1 C 8,0 km/h (2 Bft) 91 %
06.01.2022 16:40 3,6 C 3,6 C 4,1 C 78 % 1020,0 hPa 0,0 l/m 0,0 km/h (0 Bft) W 265 0 min 0,000 mm 0 W/m 0,1 C 3,6 C 0,0 km/h (0 Bft) 100 %
06.01.2022 16:50 2,9 C 2,9 C 3,6 C 79 % 1020,1 hPa 0,0 l/m 0,0 km/h (0 Bft) W 265 0 min 0,000 mm 0 W/m -0,4 C 2,9 C 0,0 km/h (0 Bft) 98 %
06.01.2022 17:00 2,5 C 2,5 C 2,9 C 81 % 1020,3 hPa 0,0 l/m 0,0 km/h (0 Bft) W 265 0 min 0,000 mm 0 W/m -0,4 C 2,5 C 0,0 km/h (0 Bft) 100 %
06.01.2022 17:10 2,2 C 2,2 C 2,5 C 82 % 1020,5 hPa 0,0 l/m 0,0 km/h (0 Bft) W 265 0 min 0,000 mm 0 W/m -0,5 C 2,2 C 0,0 km/h (0 Bft) 100 %
06.01.2022 17:20 2,1 C 2,1 C 2,2 C 83 % 1020,5 hPa 0,0 l/m 0,0 km/h (0 Bft) W 265 0 min 0,000 mm 0 W/m -0,5 C 2,1 C 0,0 km/h (0 Bft) 100 %
06.01.2022 17:30 1,9 C 1,9 C 2,1 C 84 % 1020,5 hPa 0,0 l/m 0,0 km/h (0 Bft) W 265 0 min 0,000 mm 0 W/m -0,5 C 1,9 C 0,0 km/h (0 Bft) 100 %
06.01.2022 17:40 1,4 C 1,4 C 1,9 C 86 % 1020,6 hPa 0,0 l/m 0,0 km/h (0 Bft) W 265 0 min 0,000 mm 0 W/m -0,7 C 1,4 C 0,0 km/h (0 Bft) 99 %
06.01.2022 17:50 1,4 C 1,3 C 1,4 C 87 % 1020,7 hPa 0,0 l/m 0,0 km/h (0 Bft) W 265 0 min 0,000 mm 0 W/m -0,5 C 1,4 C 0,0 km/h (0 Bft) 100 %
06.01.2022 18:00 1,4 C 1,3 C 1,4 C 87 % 1020,8 hPa 0,0 l/m 0,0 km/h (0 Bft) W 265 0 min 0,000 mm 0 W/m -0,5 C 1,4 C 0,0 km/h (0 Bft) 93 %
06.01.2022 18:10 1,4 C 1,4 C 1,4 C 87 % 1020,8 hPa 0,0 l/m 0,0 km/h (0 Bft) W 265 0 min 0,000 mm 0 W/m -0,5 C 1,4 C 1,6 km/h (1 Bft) 98 %
06.01.2022 18:20 1,3 C 1,3 C 1,4 C 87 % 1020,9 hPa 0,0 l/m 0,0 km/h (0 Bft) W 265 0 min 0,000 mm 0 W/m -0,6 C 1,3 C 0,0 km/h (0 Bft) 100 %
06.01.2022 18:30 1,4 C 1,3 C 1,4 C 88 % 1021,0 hPa 0,0 l/m 0,0 km/h (0 Bft) W 265 0 min 0,000 mm 0 W/m -0,4 C 1,4 C 0,0 km/h (0 Bft) 100 %
06.01.2022 18:40 1,2 C 1,2 C 1,4 C 88 % 1021,1 hPa 0,0 l/m 0,0 km/h (0 Bft) W 265 0 min 0,000 mm 0 W/m -0,6 C 1,2 C 0,0 km/h (0 Bft) 100 %
06.01.2022 18:50 1,2 C 1,2 C 1,2 C 89 % 1021,1 hPa 0,0 l/m 0,0 km/h (0 Bft) W 265 0 min 0,000 mm 0 W/m -0,4 C 1,2 C 0,0 km/h (0 Bft) 100 %
06.01.2022 19:00 1,1 C 1,1 C 1,2 C 90 % 1021,0 hPa 0,0 l/m 0,0 km/h (0 Bft) W 265 0 min 0,000 mm 0 W/m -0,4 C 1,1 C 0,0 km/h (0 Bft) 100 %
06.01.2022 19:10 1,2 C 1,1 C 1,2 C 90 % 1021,0 hPa 0,0 l/m 0,0 km/h (0 Bft) W 265 0 min 0,000 mm 0 W/m -0,3 C 1,2 C 0,0 km/h (0 Bft) 100 %
06.01.2022 19:20 1,1 C 1,1 C 1,2 C 90 % 1021,0 hPa 0,0 l/m 0,0 km/h (0 Bft) W 265 0 min 0,000 mm 0 W/m -0,4 C 1,1 C 0,0 km/h (0 Bft) 99 %
06.01.2022 19:30 0,8 C 0,8 C 1,1 C 90 % 1021,0 hPa 0,0 l/m 0,0 km/h (0 Bft) W 265 0 min 0,000 mm 0 W/m -0,6 C 0,8 C 0,0 km/h (0 Bft) 100 %
06.01.2022 19:40 0,8 C 0,8 C 0,9 C 90 % 1021,0 hPa 0,0 l/m 0,0 km/h (0 Bft) W 265 0 min 0,000 mm 0 W/m -0,6 C 0,8 C 0,0 km/h (0 Bft) 100 %
06.01.2022 19:50 0,7 C 0,7 C 0,8 C 90 % 1021,1 hPa 0,0 l/m 0,0 km/h (0 Bft) W 265 0 min 0,000 mm 0 W/m -0,7 C 0,7 C 0,0 km/h (0 Bft) 100 %
06.01.2022 20:00 0,3 C 0,3 C 0,7 C 90 % 1021,1 hPa 0,0 l/m 0,0 km/h (0 Bft) W 265 0 min 0,000 mm 0 W/m -1,1 C 0,3 C 0,0 km/h (0 Bft) 100 %
06.01.2022 20:10 0,0 C 0,0 C 0,3 C 91 % 1021,1 hPa 0,0 l/m 0,0 km/h (0 Bft) W 265 0 min 0,000 mm 0 W/m -1,3 C 0,0 C 0,0 km/h (0 Bft) 91 %
06.01.2022 20:20 -0,1 C -0,1 C 0,0 C 91 % 1021,0 hPa 0,0 l/m 0,0 km/h (0 Bft) W 265 0 min 0,000 mm 0 W/m -1,4 C -0,1 C 0,0 km/h (0 Bft) 100 %
06.01.2022 20:30 0,2 C -0,1 C 0,2 C 92 % 1021,0 hPa 0,0 l/m 0,0 km/h (0 Bft) W 265 0 min 0,000 mm 0 W/m -0,9 C 0,2 C 0,0 km/h (0 Bft) 100 %
06.01.2022 20:40 0,1 C 0,1 C 0,2 C 92 % 1021,0 hPa 0,0 l/m 0,9 km/h (0 Bft) W 265 0 min 0,000 mm 0 W/m -1,0 C 0,1 C 4,8 km/h (1 Bft) 100 %
06.01.2022 20:50 -0,2 C -0,2 C 0,1 C 92 % 1021,0 hPa 0,0 l/m 0,4 km/h (0 Bft) W 265 0 min 0,000 mm 0 W/m -1,3 C -0,2 C 3,2 km/h (1 Bft) 100 %
06.01.2022 21:00 -0,3 C -0,3 C -0,2 C 92 % 1021,1 hPa 0,0 l/m 0,0 km/h (0 Bft) W 265 0 min 0,000 mm 0 W/m -1,4 C -0,3 C 0,0 km/h (0 Bft) 100 %
06.01.2022 21:10 -0,3 C -0,3 C -0,3 C 92 % 1021,1 hPa 0,0 l/m 0,0 km/h (0 Bft) N 0 0 min 0,000 mm 0 W/m -1,4 C -0,3 C 0,0 km/h (0 Bft) 97 %
06.01.2022 21:20 -0,4 C -0,4 C -0,2 C 92 % 1021,1 hPa 0,0 l/m 1,6 km/h (1 Bft) W 270 0 min 0,000 mm 0 W/m -1,5 C -0,4 C 4,8 km/h (1 Bft) 98 %
06.01.2022 21:30 -0,4 C -0,4 C -0,4 C 92 % 1020,9 hPa 0,0 l/m 3,2 km/h (1 Bft) W 270 0 min 0,000 mm 0 W/m -1,5 C -0,4 C 4,8 km/h (1 Bft) 98 %
06.01.2022 21:40 -0,2 C -0,4 C -0,2 C 92 % 1020,9 hPa 0,0 l/m 1,6 km/h (1 Bft) W 270 0 min 0,000 mm 0 W/m -1,3 C -0,2 C 4,8 km/h (1 Bft) 98 %
06.01.2022 21:50 -0,1 C -0,2 C -0,1 C 92 % 1021,0 hPa 0,0 l/m 0,0 km/h (0 Bft) N 0 0 min 0,000 mm 0 W/m -1,2 C -0,1 C 0,0 km/h (0 Bft) 98 %
06.01.2022 22:00 -0,1 C -0,1 C 0,1 C 93 % 1021,1 hPa 0,0 l/m 0,0 km/h (0 Bft) N 0 0 min 0,000 mm 0 W/m -1,1 C -0,1 C 0,0 km/h (0 Bft) 98 %
06.01.2022 22:10 -0,3 C -0,4 C -0,1 C 93 % 1021,1 hPa 0,0 l/m 1,6 km/h (1 Bft) W 270 0 min 0,000 mm 0 W/m -1,3 C -0,3 C 4,8 km/h (1 Bft) 97 %
06.01.2022 22:20 -0,4 C -0,4 C -0,3 C 92 % 1021,2 hPa 0,0 l/m 0,0 km/h (0 Bft) W 270 0 min 0,000 mm 0 W/m -1,5 C -0,4 C 3,2 km/h (1 Bft) 97 %
06.01.2022 22:30 -0,8 C -0,8 C -0,4 C 92 % 1021,0 hPa 0,0 l/m 0,0 km/h (0 Bft) N 0 0 min 0,000 mm 0 W/m -1,9 C -0,8 C 0,0 km/h (0 Bft) 98 %
06.01.2022 22:40 -0,7 C -0,8 C -0,7 C 93 % 1020,8 hPa 0,0 l/m 0,0 km/h (0 Bft) W 270 0 min 0,000 mm 0 W/m -1,7 C -0,7 C 3,2 km/h (1 Bft) 98 %
06.01.2022 22:50 -0,9 C -0,9 C -0,7 C 93 % 1020,8 hPa 0,0 l/m 1,6 km/h (1 Bft) W 270 0 min 0,000 mm 0 W/m -1,9 C -0,9 C 4,8 km/h (1 Bft) 98 %
06.01.2022 23:00 -0,9 C -0,9 C -0,9 C 92 % 1020,9 hPa 0,0 l/m 0,0 km/h (0 Bft) N 0 0 min 0,000 mm 0 W/m -2,0 C -0,9 C 0,0 km/h (0 Bft) 98 %
06.01.2022 23:10 -1,0 C -1,0 C -0,9 C 93 % 1020,9 hPa 0,0 l/m 0,0 km/h (0 Bft) N 0 0 min 0,000 mm 0 W/m -2,0 C -1,0 C 0,0 km/h (0 Bft) 97 %
06.01.2022 23:20 -1,2 C -1,2 C -1,0 C 93 % 1020,9 hPa 0,0 l/m 0,0 km/h (0 Bft) N 0 0 min 0,000 mm 0 W/m -2,2 C -1,2 C 0,0 km/h (0 Bft) 97 %
06.01.2022 23:30 -1,2 C -1,3 C -1,2 C 93 % 1021,0 hPa 0,0 l/m 0,0 km/h (0 Bft) N 0 0 min 0,000 mm 0 W/m -2,2 C -1,2 C 0,0 km/h (0 Bft) 97 %
06.01.2022 23:40 -1,3 C -1,3 C -1,2 C 93 % 1021,0 hPa 0,0 l/m 0,0 km/h (0 Bft) N 0 0 min 0,000 mm 0 W/m -2,3 C -1,3 C 0,0 km/h (0 Bft) 98 %
06.01.2022 23:50 -1,4 C -1,4 C -1,3 C 92 % 1021,0 hPa 0,0 l/m 0,0 km/h (0 Bft) N 0 0 min 0,000 mm 0 W/m -2,5 C -1,4 C 0,0 km/h (0 Bft) 97 %
_ Min-Zeit 23:50 23:50 23:50 15:40 00:20 - 01:00 - - - - - 23:50 23:50 16:40 00:10
Minimum _ -1,4 C -1,4 C -1,3 C 72 % 1013,3 hPa - 0,0 km/h (0 Bft) - - - - - -2,5 C -1,4 C 0,0 km/h (0 Bft) 81 %
_ Max-Zeit 15:10 15:20 15:10 03:40 22:20 01:10 03:00 - - 12:20 15:00 11:00 13:00 15:10 02:00 00:20
Maximum _ 5,7 C 5,6 C 5,7 C 93 % 1021,2 hPa 0,2 l/m 6,4 km/h
W-SW (2 Bft)
- - 20 min 0,076 mm 339 W/m 2,2 C 5,7 C 19,3 km/h
W (3 Bft)
100 %
Durchschnitt _ 1,8 C 1,7 C 1,8 C 90 % 1018,1 hPa #0,6 l/m 2,4 km/h (1 Bft) W - #2:50 h #0,356 mm 122 W/m 0,2 C 1,8 C 7,9 km/h (2 Bft) 98 %
PRIVATE WETTERSTATION BILLIGHEIM-ALLFELD - www.neckar-odenwald-wetter.de - Holger Sonntag